Time,TemperatureF,DewpointF,PressureIn,WindDirection,WindDirectionDegrees,WindSpeedMPH,WindSpeedGustMPH,Humidity,HourlyPrecipIn,Conditions,Clouds,dailyrainin,SoftwareType,DateUTC
2013-06-16 00:14:00,53.8,23.2,31.89,SW,225,1.1,1.1,30,0.00,,,0.00,WUHU216HW,2013-06-16 06:14:00,
2013-06-16 00:19:00,53.8,23.2,31.88,SW,225,0.4,1.1,30,0.00,,,0.00,WUHU216HW,2013-06-16 06:19:00,
2013-06-16 00:24:00,53.6,23.8,31.88,SW,225,1.1,1.1,31,0.00,,,0.00,WUHU216HW,2013-06-16 06:24:00,
2013-06-16 00:29:00,53.6,24.4,31.88,SW,225,0.7,1.1,32,0.00,,,0.00,WUHU216HW,2013-06-16 06:29:00,
2013-06-16 00:34:00,53.5,24.2,31.88,SW,225,0.7,1.8,32,0.00,,,0.00,WUHU216HW,2013-06-16 06:34:00,
2013-06-16 00:39:00,53.3,24.1,31.88,SW,225,0.7,2.5,32,0.00,,,0.00,WUHU216HW,2013-06-16 06:39:00,
2013-06-16 00:44:00,53.1,24.0,31.88,SW,225,1.1,2.5,32,0.00,,,0.00,WUHU216HW,2013-06-16 06:44:00,
2013-06-16 00:49:00,52.9,24.5,31.88,SW,225,0.2,2.2,33,0.00,,,0.00,WUHU216HW,2013-06-16 06:49:00,
2013-06-16 00:54:00,52.9,24.5,31.88,SW,225,0.4,2.2,33,0.00,,,0.00,WUHU216HW,2013-06-16 06:54:00,
2013-06-16 00:59:00,52.9,23.8,31.88,SW,225,0.7,1.8,32,0.00,,,0.00,WUHU216HW,2013-06-16 06:59:00,
2013-06-16 01:04:00,52.9,24.5,31.88,SW,225,1.3,1.8,33,0.00,,,0.00,WUHU216HW,2013-06-16 07:04:00,
2013-06-16 01:09:00,52.7,24.3,31.88,SW,225,0.4,2.0,33,0.00,,,0.00,WUHU216HW,2013-06-16 07:09:00,
2013-06-16 01:14:00,52.6,24.1,31.88,SW,225,1.1,2.0,33,0.00,,,0.00,WUHU216HW,2013-06-16 07:14:00,
2013-06-16 01:19:00,52.6,24.1,31.88,SW,225,1.3,2.2,33,0.00,,,0.00,WUHU216HW,2013-06-16 07:19:00,
2013-06-16 01:24:00,52.6,24.1,31.88,SW,225,0.4,2.7,33,0.00,,,0.00,WUHU216HW,2013-06-16 07:24:00,
2013-06-16 01:29:00,52.6,24.1,31.88,SW,225,2.2,2.7,33,0.00,,,0.00,WUHU216HW,2013-06-16 07:29:00,
2013-06-16 01:34:00,52.4,23.9,31.88,SW,225,0.4,2.2,33,0.00,,,0.00,WUHU216HW,2013-06-16 07:34:00,
2013-06-16 01:39:00,52.4,24.7,31.88,SW,225,1.3,2.5,34,0.00,,,0.00,WUHU216HW,2013-06-16 07:39:00,
2013-06-16 01:44:00,52.2,24.5,31.88,SSW,203,0.4,2.5,34,0.00,,,0.00,WUHU216HW,2013-06-16 07:44:00,
2013-06-16 01:49:00,52.2,24.5,31.88,SSW,203,1.1,2.2,34,0.00,,,0.00,WUHU216HW,2013-06-16 07:49:00,
2013-06-16 01:54:00,52.2,23.8,31.88,SSW,203,1.1,2.2,33,0.00,,,0.00,WUHU216HW,2013-06-16 07:54:00,
2013-06-16 01:59:00,52.0,24.3,31.88,SSW,203,0.9,1.8,34,0.00,,,0.00,WUHU216HW,2013-06-16 07:59:00,
2013-06-16 02:04:00,52.0,23.7,31.88,SSW,203,0.9,1.3,33,0.00,,,0.00,WUHU216HW,2013-06-16 08:04:00,
2013-06-16 02:09:00,52.0,23.7,31.88,SSW,203,0.0,1.3,33,0.00,,,0.00,WUHU216HW,2013-06-16 08:09:00,
2013-06-16 02:14:00,51.8,23.5,31.88,SSW,203,1.8,2.2,33,0.00,,,0.00,WUHU216HW,2013-06-16 08:14:00,
2013-06-16 02:19:00,51.8,23.5,31.88,SSW,203,1.1,2.2,33,0.00,,,0.00,WUHU216HW,2013-06-16 08:19:00,
2013-06-16 02:24:00,51.7,24.0,31.88,SSW,203,0.4,1.8,34,0.00,,,0.00,WUHU216HW,2013-06-16 08:24:00,
2013-06-16 02:29:00,51.5,23.9,31.88,SSW,203,0.2,1.6,34,0.00,,,0.00,WUHU216HW,2013-06-16 08:29:00,
2013-06-16 02:34:00,51.5,23.9,31.88,SSW,203,0.4,1.8,34,0.00,,,0.00,WUHU216HW,2013-06-16 08:34:00,
2013-06-16 02:39:00,51.3,23.7,31.88,SSW,203,0.4,1.8,34,0.00,,,0.00,WUHU216HW,2013-06-16 08:39:00,
2013-06-16 02:44:00,51.1,24.2,31.88,SW,225,1.1,1.6,35,0.00,,,0.00,WUHU216HW,2013-06-16 08:44:00,
2013-06-16 02:49:00,50.9,23.3,31.88,SW,225,1.1,1.8,34,0.00,,,0.00,WUHU216HW,2013-06-16 08:49:00,
2013-06-16 02:54:00,50.8,23.2,31.88,SW,225,0.0,1.8,34,0.00,,,0.00,WUHU216HW,2013-06-16 08:54:00,
2013-06-16 02:59:00,50.8,23.2,31.88,SW,225,0.0,1.6,34,0.00,,,0.00,WUHU216HW,2013-06-16 08:59:00,
2013-06-16 03:04:00,50.8,23.2,31.88,SW,225,0.7,1.6,34,0.00,,,0.00,WUHU216HW,2013-06-16 09:04:00,
2013-06-16 03:09:00,50.8,23.2,31.88,SW,225,1.3,1.3,34,0.00,,,0.00,WUHU216HW,2013-06-16 09:09:00,
2013-06-16 03:14:00,50.8,22.5,31.88,SW,225,0.9,1.3,33,0.00,,,0.00,WUHU216HW,2013-06-16 09:14:00,
2013-06-16 03:19:00,50.9,22.7,31.88,SW,225,0.0,1.3,33,0.00,,,0.00,WUHU216HW,2013-06-16 09:19:00,
2013-06-16 03:24:00,51.3,23.0,31.88,SW,225,1.8,1.8,33,0.00,,,0.00,WUHU216HW,2013-06-16 09:24:00,
2013-06-16 03:29:00,51.5,23.1,31.88,SW,225,1.6,1.8,33,0.00,,,0.00,WUHU216HW,2013-06-16 09:29:00,
2013-06-16 03:34:00,51.5,23.1,31.88,SW,225,0.7,1.8,33,0.00,,,0.00,WUHU216HW,2013-06-16 09:34:00,
2013-06-16 03:39:00,51.8,23.5,31.88,SW,225,0.2,1.8,33,0.00,,,0.00,WUHU216HW,2013-06-16 09:39:00,
2013-06-16 03:44:00,51.8,23.5,31.87,SSW,203,2.2,2.2,33,0.00,,,0.00,WUHU216HW,2013-06-16 09:44:00,
2013-06-16 03:49:00,51.7,23.3,31.88,SSW,203,0.4,2.5,33,0.00,,,0.00,WUHU216HW,2013-06-16 09:49:00,
2013-06-16 03:54:00,51.8,23.5,31.88,SSE,158,0.4,2.5,33,0.00,,,0.00,WUHU216HW,2013-06-16 09:54:00,
2013-06-16 03:59:00,52.2,23.8,31.87,SSW,203,0.0,1.1,33,0.00,,,0.00,WUHU216HW,2013-06-16 09:59:00,
2013-06-16 04:04:00,52.2,24.5,31.88,SW,225,1.8,2.5,34,0.00,,,0.00,WUHU216HW,2013-06-16 10:04:00,
2013-06-16 04:09:00,52.0,24.3,31.88,SW,225,1.6,2.5,34,0.00,,,0.00,WUHU216HW,2013-06-16 10:09:00,
2013-06-16 04:14:00,51.5,24.5,31.87,WSW,248,1.3,2.5,35,0.00,,,0.00,WUHU216HW,2013-06-16 10:14:00,
2013-06-16 04:19:00,51.3,24.4,31.88,SW,225,1.8,2.2,35,0.00,,,0.00,WUHU216HW,2013-06-16 10:19:00,
2013-06-16 04:24:00,51.1,24.8,31.88,SW,225,1.1,2.5,36,0.00,,,0.00,WUHU216HW,2013-06-16 10:24:00,
2013-06-16 04:29:00,50.8,24.6,31.88,SW,225,0.9,2.5,36,0.00,,,0.00,WUHU216HW,2013-06-16 10:29:00,
2013-06-16 04:34:00,50.8,24.6,31.88,SSW,203,0.9,1.8,36,0.00,,,0.00,WUHU216HW,2013-06-16 10:34:00,
2013-06-16 04:39:00,50.4,24.2,31.88,SW,225,0.2,1.8,36,0.00,,,0.00,WUHU216HW,2013-06-16 10:39:00,
2013-06-16 04:44:00,50.4,24.2,31.88,SW,225,0.9,1.8,36,0.00,,,0.00,WUHU216HW,2013-06-16 10:44:00,
2013-06-16 04:49:00,50.2,24.8,31.88,SW,225,1.6,1.8,37,0.00,,,0.00,WUHU216HW,2013-06-16 10:49:00,
2013-06-16 04:54:00,49.9,24.4,31.88,SW,225,0.9,2.0,37,0.00,,,0.00,WUHU216HW,2013-06-16 10:54:00,
2013-06-16 04:59:00,49.7,24.3,31.88,SW,225,0.9,2.5,37,0.00,,,0.00,WUHU216HW,2013-06-16 10:59:00,
2013-06-16 05:04:00,49.3,23.9,31.88,West,270,1.1,2.5,37,0.00,,,0.00,WUHU216HW,2013-06-16 11:04:00,
2013-06-16 05:09:00,49.3,23.9,31.88,WSW,248,0.0,1.8,37,0.00,,,0.00,WUHU216HW,2013-06-16 11:09:00,
2013-06-16 05:14:00,49.3,23.9,31.88,WSW,248,0.2,1.1,37,0.00,,,0.00,WUHU216HW,2013-06-16 11:14:00,
2013-06-16 05:19:00,49.3,23.3,31.88,WSW,248,0.0,0.4,36,0.00,,,0.00,WUHU216HW,2013-06-16 11:19:00,
2013-06-16 05:24:00,49.5,23.4,31.88,WSW,248,0.2,0.4,36,0.00,,,0.00,WUHU216HW,2013-06-16 11:24:00,
2013-06-16 05:29:00,49.7,23.6,31.88,SE,135,0.0,1.1,36,0.00,,,0.00,WUHU216HW,2013-06-16 11:29:00,
2013-06-16 05:34:00,49.7,23.6,31.88,SSW,203,0.0,1.8,36,0.00,,,0.00,WUHU216HW,2013-06-16 11:34:00,
2013-06-16 05:39:00,49.5,23.4,31.88,SSW,203,0.0,1.8,36,0.00,,,0.00,WUHU216HW,2013-06-16 11:39:00,
2013-06-16 05:44:00,49.3,23.3,31.88,SW,225,0.0,1.1,36,0.00,,,0.00,WUHU216HW,2013-06-16 11:44:00,
2013-06-16 05:49:00,49.1,23.1,31.88,SSW,203,0.0,1.1,36,0.00,,,0.00,WUHU216HW,2013-06-16 11:49:00,
2013-06-16 05:54:00,49.0,23.0,31.88,SSW,203,0.0,1.1,36,0.00,,,0.00,WUHU216HW,2013-06-16 11:54:00,
2013-06-16 05:59:00,48.6,23.3,31.88,West,270,0.0,1.1,37,0.00,,,0.00,WUHU216HW,2013-06-16 11:59:00,
2013-06-16 06:04:00,48.6,22.7,31.88,West,270,0.9,1.1,36,0.00,,,0.00,WUHU216HW,2013-06-16 12:04:00,
2013-06-16 06:09:00,49.0,23.0,31.88,WNW,293,0.2,1.3,36,0.00,,,0.00,WUHU216HW,2013-06-16 12:09:00,
2013-06-16 06:14:00,49.3,23.3,31.88,South,180,0.9,1.3,36,0.00,,,0.00,WUHU216HW,2013-06-16 12:14:00,
2013-06-16 06:19:00,49.7,23.6,31.89,SSE,158,0.0,1.8,36,0.00,,,0.00,WUHU216HW,2013-06-16 12:19:00,
2013-06-16 06:24:00,50.2,23.4,31.89,South,180,0.4,1.8,35,0.00,,,0.00,WUHU216HW,2013-06-16 12:24:00,
2013-06-16 06:29:00,50.8,23.2,31.88,South,180,0.4,1.1,34,0.00,,,0.00,WUHU216HW,2013-06-16 12:29:00,
2013-06-16 06:34:00,51.7,24.0,31.88,South,180,0.4,2.0,34,0.00,,,0.00,WUHU216HW,2013-06-16 12:34:00,
2013-06-16 06:39:00,52.2,25.8,31.89,WSW,248,0.4,2.0,36,0.00,,,0.00,WUHU216HW,2013-06-16 12:39:00,
2013-06-16 06:44:00,52.9,25.1,31.89,East,90,0.0,1.1,34,0.00,,,0.00,WUHU216HW,2013-06-16 12:44:00,
2013-06-16 06:49:00,53.5,26.3,31.89,East,90,0.0,1.1,35,0.00,,,0.00,WUHU216HW,2013-06-16 12:49:00,
2013-06-16 06:54:00,54.2,27.6,31.89,North,0,0.7,1.8,36,0.00,,,0.00,WUHU216HW,2013-06-16 12:54:00,
2013-06-16 06:59:00,54.7,26.6,31.89,NE,45,1.1,1.8,34,0.00,,,0.00,WUHU216HW,2013-06-16 12:59:00,
2013-06-16 07:04:00,55.3,28.5,31.89,SSW,203,0.0,1.8,36,0.00,,,0.00,WUHU216HW,2013-06-16 13:04:00,
2013-06-16 07:09:00,55.8,28.4,31.89,South,180,0.0,1.8,35,0.00,,,0.00,WUHU216HW,2013-06-16 13:09:00,
2013-06-16 07:14:00,56.7,29.2,31.89,ENE,68,0.0,1.1,35,0.00,,,0.00,WUHU216HW,2013-06-16 13:14:00,
2013-06-16 07:19:00,57.2,28.2,31.89,ENE,68,1.3,1.3,33,0.00,,,0.00,WUHU216HW,2013-06-16 13:19:00,
2013-06-16 07:24:00,58.0,29.5,31.89,East,90,1.1,1.6,34,0.00,,,0.00,WUHU216HW,2013-06-16 13:24:00,
2013-06-16 07:29:00,58.3,29.9,31.89,ENE,68,1.6,2.0,34,0.00,,,0.00,WUHU216HW,2013-06-16 13:29:00,
2013-06-16 07:34:00,58.7,31.6,31.90,ENE,68,0.7,2.0,36,0.00,,,0.00,WUHU216HW,2013-06-16 13:34:00,
2013-06-16 07:39:00,58.7,32.3,31.90,ENE,68,1.1,2.0,37,0.00,,,0.00,WUHU216HW,2013-06-16 13:39:00,
2013-06-16 07:44:00,58.9,31.1,31.90,East,90,0.4,1.3,35,0.00,,,0.00,WUHU216HW,2013-06-16 13:44:00,
2013-06-16 07:49:00,59.2,30.0,31.90,East,90,0.7,2.5,33,0.00,,,0.00,WUHU216HW,2013-06-16 13:49:00,
2013-06-16 07:54:00,59.8,31.2,31.90,NNE,23,1.8,2.5,34,0.00,,,0.00,WUHU216HW,2013-06-16 13:54:00,
2013-06-16 07:59:00,60.1,31.4,31.90,ENE,68,1.6,2.5,34,0.00,,,0.00,WUHU216HW,2013-06-16 13:59:00,
2013-06-16 08:04:00,60.1,30.0,31.90,NE,45,1.6,2.5,32,0.00,,,0.00,WUHU216HW,2013-06-16 14:04:00,
2013-06-16 08:09:00,60.3,29.4,31.90,NE,45,1.8,2.0,31,0.00,,,0.00,WUHU216HW,2013-06-16 14:09:00,
2013-06-16 08:14:00,60.5,29.6,31.90,ENE,68,1.8,2.0,31,0.00,,,0.00,WUHU216HW,2013-06-16 14:14:00,
2013-06-16 08:19:00,60.8,29.9,31.90,ENE,68,2.0,2.2,31,0.00,,,0.00,WUHU216HW,2013-06-16 14:19:00,
2013-06-16 08:24:00,61.2,31.0,31.90,ENE,68,2.5,2.5,32,0.00,,,0.00,WUHU216HW,2013-06-16 14:24:00,
2013-06-16 08:29:00,61.6,30.5,31.90,ENE,68,1.1,2.5,31,0.00,,,0.00,WUHU216HW,2013-06-16 14:29:00,
2013-06-16 08:34:00,62.1,31.1,31.91,NE,45,2.9,3.4,31,0.00,,,0.00,WUHU216HW,2013-06-16 14:34:00,
2013-06-16 08:39:00,62.1,31.8,31.91,ENE,68,2.5,3.4,32,0.00,,,0.00,WUHU216HW,2013-06-16 14:39:00,
2013-06-16 08:44:00,61.9,30.9,31.91,NE,45,2.5,2.5,31,0.00,,,0.00,WUHU216HW,2013-06-16 14:44:00,
2013-06-16 08:49:00,61.9,30.9,31.91,ENE,68,2.0,2.5,31,0.00,,,0.00,WUHU216HW,2013-06-16 14:49:00,
2013-06-16 08:54:00,61.7,30.7,31.91,NE,45,2.0,2.5,31,0.00,,,0.00,WUHU216HW,2013-06-16 14:54:00,
2013-06-16 08:59:00,61.7,30.7,31.91,NE,45,1.8,3.4,31,0.00,,,0.00,WUHU216HW,2013-06-16 14:59:00,
2013-06-16 09:04:00,61.9,30.9,31.91,ENE,68,0.4,3.4,31,0.00,,,0.00,WUHU216HW,2013-06-16 15:04:00,
2013-06-16 09:09:00,62.3,30.4,31.91,NNE,23,2.0,2.5,30,0.00,,,0.00,WUHU216HW,2013-06-16 15:09:00,
2013-06-16 09:14:00,63.0,31.2,31.91,East,90,1.8,2.5,30,0.00,,,0.00,WUHU216HW,2013-06-16 15:14:00,
2013-06-16 09:19:00,64.1,32.0,31.91,NE,45,1.1,2.7,30,0.00,,,0.00,WUHU216HW,2013-06-16 15:19:00,
2013-06-16 09:24:00,64.4,32.4,31.91,East,90,0.7,2.7,30,0.00,,,0.00,WUHU216HW,2013-06-16 15:24:00,
2013-06-16 09:29:00,64.8,32.8,31.91,NE,45,1.8,2.5,30,0.00,,,0.00,WUHU216HW,2013-06-16 15:29:00,
2013-06-16 09:34:00,64.8,31.8,31.91,ENE,68,3.4,3.4,29,0.00,,,0.00,WUHU216HW,2013-06-16 15:34:00,
2013-06-16 09:39:00,65.0,31.9,31.91,NE,45,2.9,3.4,29,0.00,,,0.00,WUHU216HW,2013-06-16 15:39:00,
2013-06-16 09:44:00,65.2,33.0,31.91,ENE,68,2.2,3.4,30,0.00,,,0.00,WUHU216HW,2013-06-16 15:44:00,
2013-06-16 09:49:00,65.2,33.0,31.91,ENE,68,3.1,3.1,30,0.00,,,0.00,WUHU216HW,2013-06-16 15:49:00,
2013-06-16 09:54:00,65.2,33.0,31.91,ENE,68,2.5,3.1,30,0.00,,,0.00,WUHU216HW,2013-06-16 15:54:00,
2013-06-16 09:59:00,65.5,34.1,31.91,NE,45,1.8,3.1,31,0.00,,,0.00,WUHU216HW,2013-06-16 15:59:00,
2013-06-16 10:04:00,65.5,33.4,31.91,East,90,2.2,3.1,30,0.00,,,0.00,WUHU216HW,2013-06-16 16:04:00,
2013-06-16 10:09:00,65.7,33.6,31.91,ENE,68,0.7,3.1,30,0.00,,,0.00,WUHU216HW,2013-06-16 16:09:00,
2013-06-16 10:14:00,66.2,34.0,31.91,NNE,23,0.7,2.7,30,0.00,,,0.00,WUHU216HW,2013-06-16 16:14:00,
2013-06-16 10:19:00,66.8,34.5,31.91,NNE,23,2.7,3.4,30,0.00,,,0.00,WUHU216HW,2013-06-16 16:19:00,
2013-06-16 10:24:00,67.1,33.8,31.91,NE,45,2.5,3.4,29,0.00,,,0.00,WUHU216HW,2013-06-16 16:24:00,
2013-06-16 10:29:00,67.3,34.9,31.91,NNE,23,1.8,3.6,30,0.03,,,0.03,WUHU216HW,2013-06-16 16:29:00,
2013-06-16 10:34:00,67.3,34.9,31.91,ENE,68,2.5,3.6,30,0.03,,,0.03,WUHU216HW,2013-06-16 16:34:00,
2013-06-16 10:39:00,67.7,35.2,31.91,East,90,2.5,3.1,30,0.03,,,0.03,WUHU216HW,2013-06-16 16:39:00,
2013-06-16 10:44:00,68.2,34.7,31.91,East,90,1.1,3.4,29,0.03,,,0.03,WUHU216HW,2013-06-16 16:44:00,
2013-06-16 10:49:00,68.8,36.1,31.91,ENE,68,1.3,3.4,30,0.03,,,0.03,WUHU216HW,2013-06-16 16:49:00,
2013-06-16 10:54:00,69.1,36.5,31.91,ENE,68,2.2,3.8,30,0.03,,,0.03,WUHU216HW,2013-06-16 16:54:00,
2013-06-16 10:59:00,70.0,35.2,31.91,NE,45,3.1,3.8,28,0.03,,,0.03,WUHU216HW,2013-06-16 16:59:00,
2013-06-16 11:04:00,70.6,35.7,31.91,ENE,68,2.2,3.4,28,0.03,,,0.03,WUHU216HW,2013-06-16 17:04:00,
2013-06-16 11:09:00,71.3,34.3,31.91,East,90,0.4,3.1,26,0.03,,,0.03,WUHU216HW,2013-06-16 17:09:00,
2013-06-16 11:14:00,71.8,36.8,31.91,NNE,23,1.1,3.1,28,0.03,,,0.03,WUHU216HW,2013-06-16 17:14:00,
2013-06-16 11:19:00,72.2,35.0,31.91,WNW,293,0.4,4.0,26,0.03,,,0.03,WUHU216HW,2013-06-16 17:19:00,
2013-06-16 11:24:00,72.5,35.4,31.91,West,270,4.7,4.7,26,0.00,,,0.03,WUHU216HW,2013-06-16 17:24:00,
2013-06-16 11:29:00,73.1,33.8,31.91,SSW,203,2.2,4.7,24,0.00,,,0.03,WUHU216HW,2013-06-16 17:29:00,
2013-06-16 11:34:00,73.4,34.1,31.91,West,270,3.6,4.7,24,0.00,,,0.03,WUHU216HW,2013-06-16 17:34:00,
2013-06-16 11:39:00,73.6,33.2,31.91,NE,45,1.1,4.7,23,0.00,,,0.03,WUHU216HW,2013-06-16 17:39:00,
2013-06-16 11:44:00,74.0,28.9,31.91,South,180,4.9,5.1,19,0.00,,,0.03,WUHU216HW,2013-06-16 17:44:00,
2013-06-16 11:49:00,74.3,29.2,31.91,SE,135,4.0,5.1,19,0.00,,,0.03,WUHU216HW,2013-06-16 17:49:00,
2013-06-16 11:54:00,74.7,32.1,31.91,NNW,338,2.5,4.9,21,0.00,,,0.03,WUHU216HW,2013-06-16 17:54:00,
2013-06-16 11:59:00,74.9,31.2,31.91,NW,315,2.5,4.0,20,0.00,,,0.03,WUHU216HW,2013-06-16 17:59:00,
2013-06-16 12:04:00,75.2,26.6,31.91,NW,315,6.5,6.5,17,0.00,,,0.03,WUHU216HW,2013-06-16 18:04:00,
2013-06-16 12:09:00,75.2,23.2,31.91,NNE,23,2.0,6.7,15,0.00,,,0.03,WUHU216HW,2013-06-16 18:09:00,
2013-06-16 12:14:00,75.1,24.8,31.91,West,270,4.9,6.7,16,0.00,,,0.03,WUHU216HW,2013-06-16 18:14:00,
2013-06-16 12:19:00,75.1,24.8,31.91,West,270,6.5,6.5,16,0.00,,,0.03,WUHU216HW,2013-06-16 18:19:00,
2013-06-16 12:24:00,75.1,23.1,31.91,NW,315,4.9,6.5,15,0.00,,,0.03,WUHU216HW,2013-06-16 18:24:00,
2013-06-16 12:29:00,75.2,23.2,31.91,WNW,293,3.4,7.6,15,0.00,,,0.03,WUHU216HW,2013-06-16 18:29:00,
2013-06-16 12:34:00,75.2,24.8,31.91,ESE,113,1.3,7.6,16,0.00,,,0.03,WUHU216HW,2013-06-16 18:34:00,
2013-06-16 12:39:00,75.4,25.0,31.91,NNW,338,1.1,6.5,16,0.00,,,0.03,WUHU216HW,2013-06-16 18:39:00,
2013-06-16 12:44:00,75.4,20.1,31.91,West,270,2.7,7.6,13,0.00,,,0.03,WUHU216HW,2013-06-16 18:44:00,
2013-06-16 12:49:00,75.4,23.4,31.91,WNW,293,4.3,7.6,15,0.00,,,0.03,WUHU216HW,2013-06-16 18:49:00,
2013-06-16 12:54:00,75.6,25.2,31.91,WNW,293,4.7,6.3,16,0.00,,,0.03,WUHU216HW,2013-06-16 18:54:00,
2013-06-16 12:59:00,76.0,27.1,31.91,NNW,338,1.8,5.1,17,0.00,,,0.03,WUHU216HW,2013-06-16 18:59:00,
2013-06-16 13:04:00,76.3,29.1,31.91,NE,45,0.9,4.9,18,0.00,,,0.03,WUHU216HW,2013-06-16 19:04:00,
2013-06-16 13:09:00,76.7,27.7,31.91,WNW,293,0.4,4.9,17,0.00,,,0.03,WUHU216HW,2013-06-16 19:09:00,
2013-06-16 13:14:00,77.8,28.5,31.91,WNW,293,0.9,4.5,17,0.00,,,0.03,WUHU216HW,2013-06-16 19:14:00,
2013-06-16 13:19:00,78.5,29.1,31.91,WNW,293,2.9,4.5,17,0.00,,,0.03,WUHU216HW,2013-06-16 19:19:00,
2013-06-16 13:24:00,78.5,27.5,31.91,WNW,293,4.3,5.8,16,0.00,,,0.03,WUHU216HW,2013-06-16 19:24:00,
2013-06-16 13:29:00,78.1,25.5,31.91,WNW,293,4.0,5.8,15,0.00,,,0.03,WUHU216HW,2013-06-16 19:29:00,
2013-06-16 13:34:00,77.4,24.9,31.91,West,270,2.0,6.0,15,0.00,,,0.03,WUHU216HW,2013-06-16 19:34:00,
2013-06-16 13:39:00,77.0,26.3,31.91,NW,315,3.4,6.0,16,0.00,,,0.03,WUHU216HW,2013-06-16 19:39:00,
2013-06-16 13:44:00,76.7,26.0,31.91,SSE,158,4.0,5.6,16,0.00,,,0.03,WUHU216HW,2013-06-16 19:44:00,
2013-06-16 13:49:00,76.3,27.4,31.91,WNW,293,2.0,5.4,17,0.00,,,0.03,WUHU216HW,2013-06-16 19:49:00,
2013-06-16 13:54:00,76.3,27.4,31.91,NNW,338,2.9,4.7,17,0.00,,,0.03,WUHU216HW,2013-06-16 19:54:00,
2013-06-16 13:59:00,76.1,25.6,31.91,SW,225,2.0,4.7,16,0.00,,,0.03,WUHU216HW,2013-06-16 19:59:00,
2013-06-16 14:04:00,76.0,27.1,31.91,East,90,0.2,4.3,17,0.00,,,0.03,WUHU216HW,2013-06-16 20:04:00,
2013-06-16 14:09:00,75.6,26.8,31.91,ESE,113,0.0,5.4,17,0.00,,,0.03,WUHU216HW,2013-06-16 20:09:00,
2013-06-16 14:14:00,75.6,23.5,31.91,East,90,1.3,8.1,15,0.00,,,0.03,WUHU216HW,2013-06-16 20:14:00,
2013-06-16 14:19:00,75.4,26.6,31.91,NW,315,0.4,8.1,17,0.00,,,0.03,WUHU216HW,2013-06-16 20:19:00,
2013-06-16 14:24:00,75.2,26.6,31.91,WNW,293,0.7,5.6,17,0.00,,,0.03,WUHU216HW,2013-06-16 20:24:00,
2013-06-16 14:29:00,75.2,23.2,31.91,WNW,293,1.1,7.4,15,0.00,,,0.03,WUHU216HW,2013-06-16 20:29:00,
2013-06-16 14:34:00,75.2,26.6,31.90,West,270,1.1,7.4,17,0.00,,,0.03,WUHU216HW,2013-06-16 20:34:00,
2013-06-16 14:39:00,75.1,28.1,31.90,NNE,23,0.7,6.0,18,0.00,,,0.03,WUHU216HW,2013-06-16 20:39:00,
2013-06-16 14:44:00,74.9,24.6,31.90,NW,315,3.6,4.5,16,0.00,,,0.03,WUHU216HW,2013-06-16 20:44:00,
2013-06-16 14:49:00,75.1,23.1,31.90,SW,225,1.8,6.9,15,0.00,,,0.03,WUHU216HW,2013-06-16 20:49:00,
2013-06-16 14:54:00,75.1,24.8,31.90,SW,225,2.7,6.9,16,0.00,,,0.03,WUHU216HW,2013-06-16 20:54:00,
2013-06-16 14:59:00,75.1,26.4,31.90,NW,315,1.6,3.1,17,0.00,,,0.03,WUHU216HW,2013-06-16 20:59:00,
2013-06-16 15:04:00,75.1,24.8,31.89,West,270,4.7,4.7,16,0.00,,,0.03,WUHU216HW,2013-06-16 21:04:00,
2013-06-16 15:09:00,75.2,23.2,31.89,West,270,2.7,4.7,15,0.00,,,0.03,WUHU216HW,2013-06-16 21:09:00,
2013-06-16 15:14:00,75.2,24.8,31.89,WNW,293,1.3,4.9,16,0.00,,,0.03,WUHU216HW,2013-06-16 21:14:00,
2013-06-16 15:19:00,75.4,25.0,31.89,WNW,293,2.2,4.9,16,0.00,,,0.03,WUHU216HW,2013-06-16 21:19:00,
2013-06-16 15:24:00,75.4,25.0,31.89,NW,315,4.0,4.0,16,0.00,,,0.03,WUHU216HW,2013-06-16 21:24:00,
2013-06-16 15:29:00,75.6,25.2,31.89,East,90,1.8,4.0,16,0.00,,,0.03,WUHU216HW,2013-06-16 21:29:00,
2013-06-16 15:34:00,75.6,25.2,31.89,West,270,1.1,5.8,16,0.00,,,0.03,WUHU216HW,2013-06-16 21:34:00,
2013-06-16 15:39:00,75.6,25.2,31.89,WNW,293,6.9,6.9,16,0.00,,,0.03,WUHU216HW,2013-06-16 21:39:00,
2013-06-16 15:44:00,75.8,23.7,31.89,NW,315,3.4,6.9,15,0.00,,,0.03,WUHU216HW,2013-06-16 21:44:00,
2013-06-16 15:49:00,75.8,25.3,31.89,ESE,113,1.1,6.9,16,0.00,,,0.03,WUHU216HW,2013-06-16 21:49:00,
2013-06-16 15:54:00,75.8,25.3,31.88,WSW,248,1.1,3.8,16,0.00,,,0.03,WUHU216HW,2013-06-16 21:54:00,
2013-06-16 15:59:00,76.0,23.8,31.88,North,0,2.2,2.5,15,0.00,,,0.03,WUHU216HW,2013-06-16 21:59:00,
2013-06-16 16:04:00,76.0,25.5,31.88,SW,225,2.2,3.4,16,0.00,,,0.03,WUHU216HW,2013-06-16 22:04:00,
2013-06-16 16:09:00,76.0,25.5,31.88,NE,45,0.4,8.1,16,0.00,,,0.03,WUHU216HW,2013-06-16 22:09:00,
2013-06-16 16:14:00,76.0,23.8,31.88,East,90,1.8,8.1,15,0.00,,,0.03,WUHU216HW,2013-06-16 22:14:00,
2013-06-16 16:19:00,75.8,23.7,31.88,North,0,0.4,5.4,15,0.00,,,0.03,WUHU216HW,2013-06-16 22:19:00,
2013-06-16 16:24:00,75.6,20.2,31.88,SW,225,2.5,5.4,13,0.00,,,0.03,WUHU216HW,2013-06-16 22:24:00,
2013-06-16 16:29:00,75.6,20.2,31.88,North,0,2.9,8.5,13,0.00,,,0.03,WUHU216HW,2013-06-16 22:29:00,
2013-06-16 16:34:00,75.4,20.1,31.88,ESE,113,1.8,8.5,13,0.00,,,0.03,WUHU216HW,2013-06-16 22:34:00,
2013-06-16 16:39:00,75.4,20.1,31.88,SE,135,0.0,6.7,13,0.00,,,0.03,WUHU216HW,2013-06-16 22:39:00,
2013-06-16 16:44:00,75.6,23.5,31.88,SE,135,0.4,5.4,15,0.00,,,0.03,WUHU216HW,2013-06-16 22:44:00,
2013-06-16 16:49:00,75.6,20.2,31.88,WNW,293,2.5,3.1,13,0.00,,,0.03,WUHU216HW,2013-06-16 22:49:00,
2013-06-16 16:54:00,75.6,20.2,31.88,NW,315,5.8,5.8,13,0.00,,,0.03,WUHU216HW,2013-06-16 22:54:00,
2013-06-16 16:59:00,75.4,18.4,31.88,SW,225,3.4,5.8,12,0.00,,,0.03,WUHU216HW,2013-06-16 22:59:00,
2013-06-16 17:04:00,75.2,19.9,31.88,West,270,1.1,7.6,13,0.00,,,0.03,WUHU216HW,2013-06-16 23:04:00,
2013-06-16 17:09:00,75.2,18.3,31.88,East,90,1.6,7.6,12,0.00,,,0.03,WUHU216HW,2013-06-16 23:09:00,
2013-06-16 17:14:00,75.1,18.1,31.88,West,270,5.1,5.6,12,0.00,,,0.03,WUHU216HW,2013-06-16 23:14:00,
2013-06-16 17:19:00,74.7,17.8,31.87,West,270,6.9,6.9,12,0.00,,,0.03,WUHU216HW,2013-06-16 23:19:00,
2013-06-16 17:24:00,74.7,17.8,31.88,SE,135,2.9,6.9,12,0.00,,,0.03,WUHU216HW,2013-06-16 23:24:00,
2013-06-16 17:29:00,74.9,19.6,31.88,NW,315,0.0,6.5,13,0.00,,,0.03,WUHU216HW,2013-06-16 23:29:00,
2013-06-16 17:34:00,74.9,18.0,31.88,SE,135,2.0,4.3,12,0.00,,,0.03,WUHU216HW,2013-06-16 23:34:00,
2013-06-16 17:39:00,74.9,18.0,31.87,WSW,248,3.8,5.4,12,0.00,,,0.03,WUHU216HW,2013-06-16 23:39:00,
2013-06-16 17:44:00,74.9,18.0,31.87,WNW,293,3.6,5.4,12,0.00,,,0.03,WUHU216HW,2013-06-16 23:44:00,
2013-06-16 17:49:00,74.9,18.0,31.87,SE,135,0.2,6.3,12,0.00,,,0.03,WUHU216HW,2013-06-16 23:49:00,
2013-06-16 17:54:00,74.7,19.5,31.87,West,270,0.4,6.3,13,0.00,,,0.03,WUHU216HW,2013-06-16 23:54:00,
2013-06-16 17:59:00,74.7,19.5,31.87,NNE,23,1.3,2.9,13,0.00,,,0.03,WUHU216HW,2013-06-16 23:59:00,
2013-06-16 18:04:00,74.5,19.4,31.87,South,180,0.9,4.0,13,0.00,,,0.03,WUHU216HW,2013-06-17 00:04:00,
2013-06-16 18:09:00,74.5,17.7,31.87,WSW,248,1.8,7.6,12,0.00,,,0.03,WUHU216HW,2013-06-17 00:09:00,
2013-06-16 18:14:00,74.5,17.7,31.87,NE,45,1.1,7.6,12,0.00,,,0.03,WUHU216HW,2013-06-17 00:14:00,
2013-06-16 18:19:00,74.3,19.3,31.87,NNE,23,0.4,9.4,13,0.00,,,0.03,WUHU216HW,2013-06-17 00:19:00,
2013-06-16 18:24:00,74.2,20.8,31.86,NNE,23,2.0,9.4,14,0.00,,,0.03,WUHU216HW,2013-06-17 00:24:00,
2013-06-16 18:29:00,73.8,18.9,31.86,WNW,293,0.0,3.1,13,0.00,,,0.03,WUHU216HW,2013-06-17 00:29:00,
2013-06-16 18:31:00,73.8,18.9,31.87,WNW,293,1.1,3.1,13,0.00,,,0.03,WUHU216HW,2013-06-17 00:31:00,
2013-06-16 21:00:00,63.2,26.4,31.89,WSW,248,2.5,2.5,25,0.00,,,0.03,WUHU216HW,2013-06-17 03:00:00,
2013-06-16 21:05:00,62.6,25.9,31.89,WSW,248,3.1,3.1,25,0.00,,,0.05,WUHU216HW,2013-06-17 03:05:00,
2013-06-16 21:10:00,62.3,25.7,31.89,SW,225,2.9,3.4,25,0.00,,,0.05,WUHU216HW,2013-06-17 03:10:00,
2013-06-16 21:15:00,61.9,23.4,31.89,WSW,248,3.1,3.4,23,0.00,,,0.05,WUHU216HW,2013-06-17 03:15:00,
2013-06-16 21:20:00,61.7,21.3,31.89,West,270,2.5,3.6,21,0.00,,,0.05,WUHU216HW,2013-06-17 03:20:00,
2013-06-16 21:25:00,62.1,22.6,31.89,West,270,3.1,3.6,22,0.00,,,0.05,WUHU216HW,2013-06-17 03:25:00,
2013-06-16 21:30:00,62.3,21.8,31.89,West,270,2.9,3.1,21,0.00,,,0.05,WUHU216HW,2013-06-17 03:30:00,
2013-06-16 21:35:00,62.3,20.8,31.89,West,270,2.5,3.1,20,0.00,,,0.05,WUHU216HW,2013-06-17 03:35:00,
2013-06-16 21:40:00,62.1,20.6,31.89,West,270,2.2,3.1,20,0.00,,,0.05,WUHU216HW,2013-06-17 03:40:00,
2013-06-16 21:45:00,61.9,18.9,31.89,West,270,2.5,2.9,19,0.00,,,0.05,WUHU216HW,2013-06-17 03:45:00,
2013-06-16 21:50:00,61.6,18.6,31.89,WSW,248,2.5,2.5,19,0.00,,,0.05,WUHU216HW,2013-06-17 03:50:00,
2013-06-16 21:55:00,61.2,18.4,31.89,West,270,2.0,3.1,19,0.00,,,0.05,WUHU216HW,2013-06-17 03:55:00,
2013-06-16 22:00:00,61.2,18.4,31.89,West,270,1.8,3.1,19,0.00,,,0.05,WUHU216HW,2013-06-17 04:00:00,
2013-06-16 22:01:00,61.0,18.2,31.89,West,270,1.6,3.1,19,0.00,,,0.05,WUHU216HW,2013-06-17 04:01:00,
2013-06-16 22:06:00,60.8,18.1,31.89,West,270,2.0,2.5,19,0.00,,,0.05,WUHU216HW,2013-06-17 04:06:00,
2013-06-16 22:11:00,60.7,16.3,31.90,SW,225,3.4,3.6,18,0.00,,,0.05,WUHU216HW,2013-06-17 04:11:00,
2013-06-16 22:16:00,60.7,16.3,31.90,West,270,2.2,3.6,18,0.00,,,0.05,WUHU216HW,2013-06-17 04:16:00,
2013-06-16 22:21:00,60.7,16.3,31.90,West,270,1.1,3.4,18,0.00,,,0.05,WUHU216HW,2013-06-17 04:21:00,
2013-06-16 22:26:00,60.7,16.3,31.89,WNW,293,2.0,2.9,18,0.00,,,0.05,WUHU216HW,2013-06-17 04:26:00,
2013-06-16 22:31:00,60.5,14.6,31.89,WSW,248,1.6,2.5,17,0.00,,,0.05,WUHU216HW,2013-06-17 04:31:00,
2013-06-16 22:36:00,60.5,14.6,31.90,WSW,248,2.0,2.7,17,0.00,,,0.05,WUHU216HW,2013-06-17 04:36:00,
2013-06-16 22:41:00,60.1,14.3,31.90,WSW,248,1.8,2.7,17,0.00,,,0.05,WUHU216HW,2013-06-17 04:41:00,
2013-06-16 22:46:00,60.1,15.8,31.90,WSW,248,1.8,2.9,18,0.00,,,0.05,WUHU216HW,2013-06-17 04:46:00,
2013-06-16 22:51:00,59.9,15.7,31.90,West,270,1.1,2.9,18,0.00,,,0.05,WUHU216HW,2013-06-17 04:51:00,
2013-06-16 22:56:00,59.8,15.6,31.90,West,270,0.0,1.8,18,0.00,,,0.05,WUHU216HW,2013-06-17 04:56:00,
2013-06-16 23:01:00,59.6,15.4,31.90,WSW,248,1.1,2.0,18,0.00,,,0.05,WUHU216HW,2013-06-17 05:01:00,
2013-06-16 23:06:00,59.4,16.7,31.90,West,270,1.6,2.0,19,0.00,,,0.05,WUHU216HW,2013-06-17 05:06:00,
2013-06-16 23:11:00,59.2,15.0,31.89,West,270,1.1,1.8,18,0.00,,,0.05,WUHU216HW,2013-06-17 05:11:00,
2013-06-16 23:16:00,59.0,15.0,31.89,WSW,248,2.0,2.2,18,0.00,,,0.05,WUHU216HW,2013-06-17 05:16:00,
2013-06-16 23:21:00,58.9,13.2,31.89,WSW,248,0.9,2.2,17,0.00,,,0.05,WUHU216HW,2013-06-17 05:21:00,
2013-06-16 23:26:00,58.7,13.1,31.89,West,270,0.0,2.0,17,0.00,,,0.05,WUHU216HW,2013-06-17 05:26:00,
2013-06-16 23:31:00,58.7,13.1,31.89,West,270,0.4,1.1,17,0.00,,,0.05,WUHU216HW,2013-06-17 05:31:00,
2013-06-16 23:36:00,58.7,13.1,31.89,West,270,0.9,1.1,17,0.00,,,0.05,WUHU216HW,2013-06-17 05:36:00,
2013-06-16 23:41:00,58.7,14.6,31.89,West,270,0.0,1.1,18,0.00,,,0.05,WUHU216HW,2013-06-17 05:41:00,
2013-06-16 23:46:00,58.3,12.8,31.89,West,270,0.0,1.8,17,0.00,,,0.05,WUHU216HW,2013-06-17 05:46:00,
2013-06-16 23:51:00,58.0,12.5,31.89,SW,225,1.8,1.8,17,0.00,,,0.05,WUHU216HW,2013-06-17 05:51:00,
2013-06-16 23:56:00,58.0,12.5,31.90,SW,225,0.9,1.8,17,0.00,,,0.05,WUHU216HW,2013-06-17 05:56:00,